[[{"header":{"parameterUnit":"m.s-1","parameterCategory":1,"la1":30.2991,"la2":30.254,"lo1":-89.0895,"lo2":-89.0444,"dx":0.0017,"dy":0.0017,"nx":28,"ny":28,"refTime":"2023-01-14T03:00:00:Z","depth":0,"parameterNumber":2,"parameterNumberName":"U-component_of_WINDS"},"data":[0,0,0,0,0,0,0,0,0,0,0,0,0,0,0,0,0,0,0,0,0,0,0,0,0,0,0,0,0,0,0,0,0,0,0,0,0,0,0,0,0,0,0,0,0,0,0,0,0,0,0,0,0,0,0,0,0,0,-2.9529,-2.9528,0,-2.9504,-2.9504,-2.9503,-2.9405,-2.9402,-2.94,-2.9398,-2.9375,-2.9376,-2.9378,0,0,0,0,0,0,0,0,0,0,0,0,0,-2.9494,-2.9495,-2.9529,-2.9528,-2.9528,-2.9504,-2.9504,-2.9503,-2.9405,-2.9402,-2.94,-2.9397,-2.9374,-2.9376,-2.9378,0,0,0,0,0,0,0,0,0,0,0,0,0,-2.9494,-2.9496,-2.9529,-2.9476,-2.9471,-2.9504,-2.9504,-2.9503,-2.9406,-2.9402,-2.9399,-2.9396,-2.9374,-2.9376,-2.9378,-2.946,0,0,-2.9385,-2.9386,0,0,0,0,0,0,0,0,-2.9494,-2.9495,-2.9484,-2.948,-2.9474,-2.9454,-2.9483,-2.9489,-2.9407,-2.9431,-2.9398,-2.9394,-2.9404,-2.9403,-2.9406,-2.9459,-2.9458,-2.9385,-2.9386,-2.9387,-2.9388,0,0,0,0,0,0,0,-2.9494,-2.9495,-2.9519,-2.9484,-2.9478,-2.9455,-2.9451,-2.9484,-2.9437,-2.9428,-2.9421,-2.9419,-2.9401,-2.9404,-2.9405,-2.9458,-2.9385,-2.9387,-2.9388,-2.9389,-2.9578,-2.9581,0,0,0,0,0,0,-2.9501,-2.9496,-2.952,-2.9518,-2.9476,-2.9458,-2.9454,-2.9464,-2.9436,-2.9429,-2.9422,-2.9415,-2.9402,-2.9403,-2.9404,-2.9498,-2.9387,-2.9389,-2.9391,-2.9574,-2.9579,-2.9583,0,0,0,0,0,0,-2.9501,-2.9504,-2.9521,-2.9505,-2.9505,-2.9462,-2.9475,-2.9465,-2.9469,-2.9432,-2.9423,-2.9435,-2.94,-2.9401,-2.9447,-2.9496,-2.9391,-2.9393,-2.957,-2.9576,-2.9581,-2.9687,0,0,0,0,0,0,-2.95,-2.9504,-2.9534,-2.9507,-2.9507,-2.9563,-2.9478,-2.9467,-2.9473,-2.9463,-2.9441,-2.9434,-2.9397,-2.9444,-2.9449,-2.9497,-2.9394,-2.9565,-2.9572,-2.9579,-2.9679,-2.9696,-2.971,0,0,0,0,0,-2.9499,-2.9565,-2.9536,-2.954,-2.9543,-2.9566,-2.9566,-2.9522,-2.9477,-2.9507,-2.9484,-2.9435,-2.9491,-2.945,-2.9455,-2.9504,-2.9562,-2.957,-2.9578,-2.9672,-2.9692,-2.9709,0,0,0,0,0,0,-2.96,-2.9561,-2.9528,-2.9587,-2.9581,-2.955,-2.9586,-2.9545,-2.9551,-2.9542,-2.9487,-2.9483,-2.9538,-2.9526,-2.9481,-2.9583,-2.9518,-2.9528,-2.9588,-2.9607,-2.9622,-2.9622,-2.9396,0,0,0,0,0,-2.9629,-2.9651,-2.9616,-2.9671,-2.967,-2.9629,-2.9637,-2.9604,-2.9596,-2.9592,-2.9572,-2.9567,-2.9583,-2.9594,-2.9607,-2.9678,-2.9672,-2.9715,-2.973,-2.9743,-2.9751,-2.9788,-2.9806,-2.961,-2.961,-2.961,0,0,-2.9689,-2.9671,-2.9687,-2.9691,-2.9682,-2.9706,-2.9627,-2.9656,-2.9673,-2.9597,-2.9638,-2.9625,-2.9615,-2.9674,-2.9699,-2.9665,-2.9805,-2.9753,-2.9764,-2.9765,-2.9798,-2.9817,-2.9833,-2.9615,-2.9614,-2.9613,0,0,-2.981,-2.9799,-2.9844,-2.9837,-2.9825,-2.9798,-2.9809,-2.9785,-2.9772,-2.9813,-2.9757,-2.9778,-2.9807,-2.9802,-2.9804,-2.9928,-2.9883,-2.9934,-3.0013,-3.005,-3.0065,-3.0078,-3.0122,-3.0138,-2.9943,-2.9943,-2.9943,0,-2.9886,-2.9919,-2.9872,-2.9905,-2.9908,-2.9841,-2.9887,-2.9883,-2.9876,-2.9881,-2.9844,-2.988,-2.9869,-2.9926,-2.9956,-2.996,-2.9971,-2.9934,-3.0067,-3.008,-3.0091,-3.0132,-3.0148,-2.9949,-2.9948,-2.9948,-2.9947,0,-3.0014,-3.0038,-3.0076,-3.0071,-3.0079,-3.0119,-3.0078,-3.0093,-3.006,-3.0037,-3.0081,-3.0066,-3.0075,-3.0087,-3.0055,-3.014,-3.012,-3.0076,-3.001,-3.0117,-3.0154,-3.0169,-2.9958,-2.9956,-2.9954,-2.9952,0,0,-3.0194,-3.0164,-3.0178,-3.0176,-3.0159,-3.0177,-3.0215,-3.0223,-3.0237,-3.0236,-3.0265,-3.0293,-3.0253,-3.0255,-3.0223,-3.0255,-3.0354,-3.0207,-3.0206,-3.0234,-3.0446,-3.0478,-3.0496,-3.0325,-3.0328,-3.033,-3.0446,0,-3.0308,-3.0368,-3.0328,-3.0395,-3.0418,-3.0356,-3.0389,-3.0383,-3.0364,-3.0381,-3.036,-3.038,-3.0326,-3.0327,-3.0357,-3.0335,-3.0395,-3.0327,-3.0352,-3.0354,-3.0354,-3.0516,-3.0548,-3.0658,-3.0461,-3.0463,-3.0465,0,-3.0448,-3.0453,-3.0522,-3.0502,-3.051,-3.054,-3.0545,-3.0563,-3.0556,-3.054,-3.0544,-3.0504,-3.054,-3.0478,-3.0527,-3.0482,-3.0491,-3.0483,-3.0486,-3.0484,-3.0414,-3.0517,-3.0693,-3.0709,-3.0488,-3.0486,-3.0484,0,-3.0571,-3.0595,-3.064,-3.064,-3.0618,-3.0641,-3.0633,-3.0622,-3.0631,-3.0636,-3.0641,-3.0652,-3.0657,-3.0667,-3.0631,-3.0589,-3.0686,-3.062,-3.0673,-3.0674,-3.0694,-3.0692,-3.0871,-3.0704,-3.0704,-3.0703,-3.0703,0,-3.0701,-3.0746,-3.0695,-3.0722,-3.0771,-3.0726,-3.0776,-3.0762,-3.0754,-3.0778,-3.0727,-3.0751,-3.0704,-3.0724,-3.0697,-3.0742,-3.0746,-3.0734,-3.0726,-3.0737,-3.0738,-3.074,-3.073,-3.0708,-3.0707,-3.0706,-3.0705,0,-3.0844,-3.0812,-3.0857,-3.0834,-3.0829,-3.0866,-3.0846,-3.0871,-3.085,-3.0882,-3.0887,-3.0854,-3.0874,-3.0841,-3.0858,-3.084,-3.0903,-3.0884,-3.0905,-3.0898,-3.0953,-3.0947,-3.1137,-3.1159,-3.098,-3.0982,-3.0983,0,-3.0928,-3.0961,-3.0942,-3.0954,-3.0949,-3.097,-3.0978,-3.0937,-3.0948,-3.0944,-3.097,-3.0987,-3.0997,-3.1034,-3.1012,-3.1026,-3.1006,-3.1072,-3.1007,-3.1018,-3.1005,-3.1002,-3.1005,-3.1084,-3.1086,-3.1088,-3.1089,0,-3.108,-3.1063,-3.1076,-3.1085,-3.1097,-3.1102,-3.1104,-3.1117,-3.1074,-3.1089,-3.111,-3.1119,-3.1137,-3.1154,-3.1163,-3.1156,-3.1116,-3.111,-3.1123,-3.1133,-3.1143,-3.1137,-3.0938,-3.1105,-3.1103,-3.1102,-3.1101,-3.1101,-3.1194,-3.1221,-3.1212,-3.1229,-3.1226,-3.123,-3.1252,-3.1234,-3.1251,-3.1261,-3.1237,-3.1264,-3.1259,-3.1266,-3.1264,-3.1285,-3.1256,-3.1275,-3.1279,-3.1284,-3.1292,-3.1142,-3.1287,-3.1286,-3.1286,-3.1285,-3.1285,0,-3.1342,-3.1333,-3.135,-3.1354,-3.1369,-3.1331,-3.1331,-3.1346,-3.137,-3.1368,-3.138,-3.1405,-3.1423,-3.1403,-3.1417,-3.1438,-3.142,-3.1443,-3.144,-3.1439,-3.1317,-3.1304,-3.1457,-3.1457,-3.1457,-3.1457,-3.1457,-3.1457,-3.142,-3.1462,-3.1445,-3.1487,-3.1479,-3.1504,-3.1508,-3.1511,-3.1509,-3.1539,-3.1553,-3.1541,-3.1532,-3.1546,-3.1561,-3.1555,-3.1561,-3.1591,-3.1578,-3.1464,-3.1447,-3.1431,-3.1418,-3.1593,-3.1593,-3.1697,-3.1698,-3.1699]},{"header":{"parameterUnit":"m.s-1","parameterCategory":1,"la1":30.2991,"la2":30.254,"lo1":-89.0895,"lo2":-89.0444,"dx":0.0017,"dy":0.0017,"nx":28,"ny":28,"refTime":"2023-01-14T03:00:00:Z","depth":0,"parameterNumber":3,"parameterNumberName":"V-component_of_WINDS"},"data":[0,0,0,0,0,0,0,0,0,0,0,0,0,0,0,0,0,0,0,0,0,0,0,0,0,0,0,0,0,0,0,0,0,0,0,0,0,0,0,0,0,0,0,0,0,0,0,0,0,0,0,0,0,0,0,0,0,0,2.0138,2.0137,0,2.0064,2.0063,2.0062,2.004,2.0041,2.0041,2.0041,1.9961,1.9959,1.9956,0,0,0,0,0,0,0,0,0,0,0,0,0,2.0259,2.0257,2.0138,2.0137,2.0136,2.0064,2.0063,2.0062,2.004,2.0041,2.0041,2.0042,1.9962,1.9959,1.9956,0,0,0,0,0,0,0,0,0,0,0,0,0,2.0198,2.0256,2.0138,2.0117,2.0114,2.0064,2.0063,2.0062,2.004,2.0041,2.0041,2.0042,1.9963,1.9959,1.9956,1.992,0,0,1.9944,1.9943,0,0,0,0,0,0,0,0,2.0201,2.0193,2.0121,2.0118,2.0115,2.0062,2.0076,2.0014,2.004,2.0068,2.0042,2.0042,1.9994,1.9988,1.9972,1.9917,1.9913,1.9944,1.9942,1.994,1.9939,0,0,0,0,0,0,0,2.0205,2.0196,2.0109,2.012,2.0116,2.011,2.0102,2.0064,2.0028,2.0066,2.0064,2.0056,1.9993,1.9976,1.997,1.9912,1.9944,1.9941,1.9938,1.9937,1.9825,1.9824,0,0,0,0,0,0,2.0214,2.02,2.0111,2.0106,2.0161,2.0108,2.0099,2.0078,2.0029,2.0022,2.0055,2.0055,1.9982,1.9975,1.9967,1.9924,1.994,1.9936,1.9934,1.9826,1.9825,1.9824,0,0,0,0,0,0,2.0216,2.0206,2.0114,2.0153,2.0141,2.0105,2.0082,2.0077,2.006,2.0021,2.0014,2.0045,1.9982,1.9973,1.9933,1.992,1.9935,1.9931,1.9827,1.9826,1.9825,1.9835,0,0,0,0,0,0,2.022,2.0207,2.0194,2.0153,2.0139,2.0081,2.0082,2.0075,2.0054,2.0053,2.001,2.0003,1.9982,1.9939,1.9929,1.9916,1.9928,1.9828,1.9826,1.9825,1.9836,1.9835,1.9834,0,0,0,0,0,2.0224,2.0198,2.0193,2.0182,2.0121,2.0081,2.0073,2.005,2.0053,2.0039,2.0015,2.0004,1.9924,1.9935,1.9924,1.9909,1.9828,1.9827,1.9825,1.9836,1.9835,1.9834,0,0,0,0,0,0,2.0237,2.0192,2.0186,2.0146,2.0118,2.0077,2.0059,2.0049,2.0018,2.0018,1.999,1.9981,1.9943,1.9922,1.9935,1.9873,1.9876,1.9872,1.9888,1.9886,1.9885,1.9891,1.9925,0,0,0,0,0,2.0236,2.0207,2.017,2.0138,2.0124,2.0094,2.0076,2.0061,2.003,2.0017,1.9989,1.9958,1.9926,1.9905,1.9873,1.9833,1.9824,1.9818,1.9817,1.9816,1.9813,1.9791,1.9788,1.9819,1.9819,1.9819,0,0,2.0231,2.0204,2.0187,2.014,2.0116,2.0087,2.0084,2.0053,2.0031,2.0012,1.9973,1.9952,1.9915,1.9876,1.9857,1.9857,1.9803,1.9814,1.9814,1.9811,1.9789,1.9786,1.9784,1.9818,1.9818,1.9818,0,0,2.0209,2.0185,2.0157,2.0134,2.0099,2.0079,2.0073,2.0034,2.002,1.9981,1.9967,1.994,1.9884,1.9859,1.984,1.9811,1.98,1.9801,1.9795,1.9774,1.9772,1.9769,1.9759,1.9756,1.9798,1.9798,1.9798,0,2.0208,2.0164,2.0143,2.0114,2.0094,2.0078,2.0049,2.0027,1.9982,1.9968,1.997,1.9902,1.9876,1.9831,1.9824,1.9808,1.98,1.9805,1.9774,1.9772,1.9769,1.9759,1.9755,1.9798,1.9798,1.9798,1.9798,0,2.0165,2.0135,2.0117,2.0076,2.0054,2.0025,1.9999,1.9979,1.9967,1.9948,1.9909,1.9878,1.984,1.9829,1.9816,1.9782,1.9783,1.978,1.9782,1.9767,1.9757,1.9753,1.9799,1.9799,1.9799,1.9799,0,0,2.0146,2.0097,2.009,2.0073,2.0034,2.001,1.998,1.9945,1.9929,1.9899,1.9873,1.9828,1.9826,1.9803,1.9788,1.977,1.9749,1.9768,1.9767,1.9766,1.9711,1.9713,1.9709,1.9743,1.9742,1.9742,1.9714,0,2.0119,2.0067,2.0048,2.0005,1.9977,1.9963,1.9937,1.991,1.9892,1.9865,1.9844,1.9813,1.9812,1.9798,1.978,1.9756,1.9738,1.9758,1.9718,1.9717,1.9727,1.9704,1.9706,1.9682,1.971,1.9709,1.9709,0,2.008,2.0052,2.0007,1.9973,1.996,1.9938,1.9905,1.988,1.9849,1.9837,1.9814,1.98,1.9768,1.9773,1.9729,1.9743,1.9726,1.9712,1.9711,1.9705,1.9711,1.9698,1.9673,1.967,1.9702,1.9703,1.9703,0,2.0071,2.0022,1.9989,1.9974,1.9934,1.9919,1.9901,1.9871,1.9852,1.9823,1.981,1.9777,1.9759,1.9734,1.9711,1.9717,1.9669,1.9672,1.9658,1.9658,1.9647,1.9648,1.9619,1.9637,1.9637,1.9637,1.9638,0,2.0042,2.0015,1.9985,1.9964,1.9934,1.9913,1.9883,1.9864,1.9838,1.9813,1.9799,1.9775,1.9748,1.9721,1.9704,1.967,1.9662,1.9651,1.9646,1.9652,1.9653,1.9639,1.964,1.9636,1.9637,1.9637,1.9637,0,2.0027,2.0006,1.9969,1.9935,1.9926,1.9904,1.9875,1.9854,1.9836,1.9805,1.9796,1.9767,1.9735,1.9711,1.9669,1.9657,1.9622,1.9617,1.9632,1.963,1.9617,1.9619,1.9578,1.9571,1.9594,1.9594,1.9594,0,2.001,1.9989,1.9953,1.9937,1.9919,1.9892,1.9873,1.9852,1.9833,1.9798,1.9781,1.9749,1.9722,1.9671,1.9646,1.9614,1.9608,1.9596,1.9603,1.961,1.9608,1.9609,1.9607,1.9595,1.9595,1.9594,1.9594,0,1.9981,1.9973,1.9946,1.9917,1.9895,1.987,1.9845,1.9832,1.9807,1.9786,1.9754,1.9733,1.9692,1.9659,1.9625,1.9606,1.9596,1.9593,1.9588,1.9593,1.9603,1.9597,1.963,1.9593,1.9594,1.9594,1.9594,1.9594,1.9964,1.9946,1.9918,1.989,1.987,1.9847,1.9827,1.9807,1.9781,1.9746,1.9735,1.9703,1.9674,1.9627,1.9608,1.9582,1.9581,1.9574,1.9572,1.9571,1.9571,1.9608,1.9575,1.9575,1.9575,1.9575,1.9575,0,1.9935,1.9918,1.9892,1.9859,1.9837,1.9831,1.9804,1.9785,1.9757,1.9732,1.9706,1.967,1.964,1.9613,1.9581,1.9565,1.956,1.9557,1.9558,1.9554,1.9573,1.9581,1.9562,1.9562,1.9562,1.9562,1.9562,1.9562,1.9918,1.9886,1.9875,1.9833,1.9815,1.9784,1.9769,1.9748,1.9728,1.969,1.9665,1.9648,1.9622,1.9589,1.956,1.9553,1.9542,1.9541,1.9532,1.9551,1.9552,1.9554,1.9561,1.9539,1.9539,1.9515,1.9515,1.9515]}]]